Location: Amber Place
(27.9751°N, 82.3711°W)
Time: 23:39:39
(UTC+00:00)

Hubble Space Telescope - Visible Passes

Search period start: 21 September 2021 00:00
Search period end: 01 October 2021 00:00
Orbit: 535 x 539 km, 28.5° (Epoch: 21 September)

Date Brightness Start Highest point End Pass type
(mag) Time Alt. Az. Time Alt. Az. Time Alt. Az.
21 Sep 2.5 01:08:05 10° WSW 01:11:21 22° SSW 01:11:37 22° SSW visible
22 Sep 2.8 00:57:26 10° WSW 01:00:15 18° SSW 01:01:24 16° S visible
23 Sep 3.2 00:46:58 10° WSW 00:49:08 14° SSW 00:51:14 10° S visible
24 Sep 3.5 00:37:12 10° SW 00:38:01 10° SSW 00:38:49 10° SSW visible
